DECAYED

DMSP 5D-2 F13 DEB, 40438 (Decayed)

Orbit data source: Space-Track

DMSP 5D-2 F13 DEB, 40438 was space debris in SSO originally from a launch on Fri, 24 Mar 1995 UTC launched from the Air Force Western Test Range (AFWTR). Debris objects in space refer to the collection of defunct objects orbiting the Earth. Examples of debris include non-operational satellites, rocket bodies, and fragments generated from explosions, collisions, or faulty payload assembly.

Not visible in the next 10 days
Identifier
40438, 1995-015AQ
Orbit
Decayed
Country
Flag of USUS
Related business
Manufacturer
Unknown
Mission
Decayed spacecraft
Bus & Motor
Unknown
Mass
Unknown
Launch date (UTC)
1995-03-24 (31 years ago)
Launch vehicle
Unknown
Launch site
Air Force Western Test Range (AFWTR)
Object type
Payload
Rocket body
Debris
Shape & HBR
Unknown shape, 0.1 m
Radar Cross Section
Small (<0.1 m²)

Expand to show TLE details & history
Last TLE update: 4 months ago

TLE from 4 months ago
0 DMSP 5D-2 F13 DEB
1 40438U 95015AQ  26020.00418479  .01803866  00000-0  46086-1 0  9999
2 40438  98.8371  87.0709 0005218 279.5227  80.5423 15.36159575566330
Epoch: 2026-01-20T00:06Z
TLE epoch observation values (Epoch: 2026-01-20T00:06:01.565Z)
Latitude
-0.00001°
Longitude
-33.8279°
Altitude
459.961 km
Speed
7.637 km/s
True Right ascension
05h 48m 17s
True Declination
0° 00' 00"
Sunlit
Object was in full shadow at epoch
Visualization orbit readout
Latitude
Unknown
Longitude
Unknown
Altitude
Unknown
Speed
Unknown
Apparent Right ascension
Unknown
Apparent Declination
Unknown
Sunlit
N/A
Visualization observer readout
Local Sidereal Time
05:18:31
Azimuth
Unknown
Elevation
Unknown
Doppler factor
Unknown
Orbital elements
Apogee altitude
458.055 km
Perigee altitude
450.925 km
Semi-major axis
6,832.627 km
Eccentricity
0.00052
Inclination
98.8371°
RAAN
87.0709°
Arg. of periapsis
279.5227°
True anomaly
80.60129°
Mean anomaly
80.5423°
Eccentric anomaly
80.57179°
Mean motion
3.84292 °/min
Orbital period
93.68 mins
BSTAR
0.046086

Documentation

Showing up to 5 results
|